This is the latest recevied weather packets stored in our database for station/object AC4AG. If no packets are shown the sender has not sent any weather packets the latest 1 day(s).
| Time | Temp. | Humidity | Pressure | Rain* | Wind** | Luminosity | Snow |
|---|---|---|---|---|---|---|---|
| 1778031573 | 20° C | 54% | 1008.8 hPa | 0 mm | 5.81 m/s, 195° | 0 W/m² | - |
| 1778031271 | 20° C | 54% | 1008.8 hPa | 0 mm | 5.81 m/s, 195° | 0 W/m² | - |
| 1778030967 | 20.56° C | 51% | 1008.3 hPa | 0 mm | 3.58 m/s, 230° | 0 W/m² | - |
| 1778030664 | 20.56° C | 51% | 1008 hPa | 0 mm | 4.02 m/s, 175° | 0 W/m² | - |
| 1778030361 | 20.56° C | 51% | 1008 hPa | 0 mm | 1.34 m/s, 192° | 0 W/m² | - |
| 1778030058 | 20.56° C | 51% | 1008.1 hPa | 0 mm | 3.13 m/s, 200° | 0 W/m² | - |
| 1778029755 | 20.56° C | 50% | 1007.7 hPa | 0 mm | 3.58 m/s, 206° | 0 W/m² | - |
| 1778029454 | 20.56° C | 50% | 1007.8 hPa | 0 mm | 2.24 m/s, 207° | 0 W/m² | - |
| 1778029150 | 20.56° C | 50% | 1008 hPa | 0 mm | 2.68 m/s, 215° | 0 W/m² | - |
| 1778028848 | 20.56° C | 49% | 1008 hPa | 0 mm | 4.02 m/s, 199° | 0 W/m² | - |
| 1778028542 | 20.56° C | 49% | 1007.9 hPa | 0 mm | 3.13 m/s, 226° | 0 W/m² | - |
| 1778028241 | 21.11° C | 49% | 1007.6 hPa | 0 mm | 3.58 m/s, 203° | 1 W/m² | - |
| 1778027937 | 21.11° C | 50% | 1007.7 hPa | 0 mm | 2.68 m/s, 215° | 1 W/m² | - |
| 1778027633 | 21.11° C | 51% | 1007.8 hPa | 0 mm | 2.24 m/s, 184° | 2 W/m² | - |
| 1778027329 | 20.56° C | 52% | 1007.7 hPa | 0 mm | 5.36 m/s, 221° | 3 W/m² | - |
| 1778027026 | 20° C | 56% | 1007.6 hPa | 0 mm | 1.79 m/s, 156° | 4 W/m² | - |
| 1778026721 | 20° C | 59% | 1007.6 hPa | 0 mm | 1.34 m/s, 213° | 8 W/m² | - |
| 1778026419 | 20° C | 61% | 1007.5 hPa | 0 mm | 1.34 m/s, 150° | 12 W/m² | - |
| 1778026116 | 20° C | 62% | 1007.3 hPa | 0 mm | 0.89 m/s, 173° | 17 W/m² | - |
| 1778025814 | 20° C | 62% | 1007.1 hPa | 0 mm | 1.34 m/s, 179° | 35 W/m² | - |
| 1778025510 | 20° C | 62% | 1007.2 hPa | 0 mm | 0.89 m/s, 149° | 41 W/m² | - |
| 1778025207 | 20° C | 64% | 1007 hPa | 0 mm | 0.45 m/s, 155° | 34 W/m² | - |
| 1778024904 | 20° C | 65% | 1007.4 hPa | 0 mm | 0.89 m/s, 159° | 33 W/m² | - |
| 1778024602 | 20° C | 65% | 1007.6 hPa | 0 mm | 0.45 m/s, 152° | 29 W/m² | - |
| 1778024299 | 20° C | 64% | 1007.6 hPa | 0 mm | 0.45 m/s, 143° | 29 W/m² | - |
* Rain latest hour (hover to see other rain measurements)
** Current wind speed in m/s (hover to see current wind gust speed)